This is the latest recevied weather packets stored in our database for station/object GW1596. If no packets are shown the sender has not sent any weather packets the latest 10 day(s).
| Time | Temp. | Humidity | Pressure | Rain* | Wind** | Luminosity | Snow |
|---|---|---|---|---|---|---|---|
| 1777441332 | 16.11° C | 97% | 1014.9 hPa | 0 mm | - | - | - |
| 1777438126 | 16.11° C | 97% | 1015.5 hPa | 0 mm | - | - | - |
| 1777436667 | 16.11° C | 97% | 1015.5 hPa | 0 mm | - | - | - |
| 1777433447 | 16.11° C | 97% | 1015.9 hPa | 12.7 mm | - | - | - |
| 1777431256 | 15.56° C | 96% | 1015.9 hPa | 12.7 mm | - | - | - |
| 1777430213 | 16.11° C | 96% | 1015.9 hPa | 12.7 mm | - | - | - |
| 1777428393 | 16.67° C | 95% | 1015.9 hPa | 12.7 mm | - | - | - |
| 1777421909 | 18.89° C | 85% | 1015.5 hPa | 12.7 mm | - | - | - |
| 1777420098 | 21.11° C | 76% | 1014.2 hPa | 12.7 mm | - | - | - |
| 1777418667 | 22.78° C | 68% | 1014.9 hPa | 12.7 mm | - | - | - |
| 1777417608 | 23.89° C | 61% | 1014.9 hPa | 12.7 mm | - | - | - |
| 1777417237 | 23.89° C | 60% | 1015.2 hPa | 12.7 mm | - | - | - |
| 1777406074 | 22.22° C | 70% | 1016.5 hPa | 12.7 mm | - | - | - |
| 1777400331 | 20.56° C | 77% | 1017.2 hPa | 12.7 mm | - | - | - |
| 1777399601 | 20° C | 81% | 1017.2 hPa | 12.7 mm | - | - | - |
| 1777398136 | 18.89° C | 84% | 1017.6 hPa | 12.7 mm | - | - | - |
| 1777395648 | 17.78° C | 86% | 1017.6 hPa | 12.7 mm | - | - | - |
| 1777394924 | 17.22° C | 88% | 1017.9 hPa | 12.7 mm | - | - | - |
| 1777394204 | 17.22° C | 86% | 1017.9 hPa | 12.7 mm | - | - | - |
| 1777392753 | 17.22° C | 85% | 1017.6 hPa | 12.7 mm | - | - | - |
| 1777388784 | 17.22° C | 82% | 1017.2 hPa | 12.7 mm | - | - | - |
| 1777388451 | 16.67° C | 82% | 1016.9 hPa | 12.7 mm | - | - | - |
| 1777382664 | 14.44° C | 87% | 1017.2 hPa | 12.7 mm | - | - | - |
| 1777380158 | 13.89° C | 88% | 1016.5 hPa | 12.7 mm | - | - | - |
| 1777379789 | 13.89° C | 88% | 1016.5 hPa | 12.7 mm | - | - | - |
* Rain since midnight (hover to see other rain measurements)
** Current wind speed in m/s (hover to see current wind gust speed)